{"data":{"norad_id":45044,"epoch":"2026-09-20T01:57:57.063744Z","epoch_age_seconds":50495,"freshness":"FRESH","line1":"1 45044U 20006A   26263.08191046  .00056219  00000+0  39601-3 0  9997","line2":"2 45044  53.1468  31.9550 0001480 325.5241  34.5683 15.73566921367239","mean_motion":15.73566921,"eccentricity":0.000148,"inclination_deg":53.1468,"raan_deg":31.955,"arg_perigee_deg":325.5241,"mean_anomaly_deg":34.5683,"bstar":0.00039601,"rev_number":36723,"period_min":91.511837264912,"perigee_km":347.7166950925,"apogee_km":349.70784247606,"semimajor_km":6726.8492687843,"source":"CELESTRAK","updated_at":"2026-09-20T09:00:38.222215Z"}}